70.6°F
Current conditions from King Hill
Updated every 5 minutes
 
  Thursday July 31, 2014

Station Historical Data
Daily Summary for June 16, 2011 Units:  Metric    English   Both
« Previous Day
Next Day »
Daily Weekly Monthly Yearly Custom
  High: Low: Average:
Temperature: 29.6 °C 14.6 °C 21.5 °C
Dew Point: 18.2 °C 10.6 °C 13.7 °C
Humidity: 83% 36% 63%
Wind Speed: 9.7km/h 0km/h 4.2km/h
Wind Gust: 22.5km/h - -
Wind- - SW
Pressure: 1009.7 hPa 1007.3 hPa -
Precipitation: 0 mm    
Historical Graphs
 
 
Tabular Data for June 16, 2011
Time Temperature Dew Point Pressure Wind Wind Speed Wind Gust Humidity Daily Rainfall
00:00 14.6 °C 11.7 °C 1008.4 hPa Calm   4.8 km/h 83% 0 mm
00:05 15 °C 11.8 °C 1008.4 hPa Calm   4.8 km/h 81% 0 mm
00:10 15.5 °C 11.9 °C 1008.4 hPa Calm   6.4 km/h 79% 0 mm
00:15 15.8 °C 11.9 °C 1008.4 hPa SW 3.2 km/h 8 km/h 78% 0 mm
00:20 16 °C 12 °C 1008.4 hPa SW 1.6 km/h 12.9 km/h 77% 0 mm
00:25 16.1 °C 11.9 °C 1008.4 hPa Calm   12.9 km/h 76% 0 mm
00:30 16.1 °C 11.9 °C 1008.4 hPa Calm   6.4 km/h 76% 0 mm
00:35 15.9 °C 11.9 °C 1008.7 hPa Calm     77% 0 mm
00:40 15.7 °C 11.8 °C 1008.7 hPa SSW 1.6 km/h 8 km/h 78% 0 mm
00:45 15.6 °C 11.7 °C 1008.7 hPa SSW 4.8 km/h 9.7 km/h 78% 0 mm
00:50 15.4 °C 11.8 °C 1008.7 hPa SSW 6.4 km/h 11.3 km/h 79% 0 mm
00:55 15.3 °C 11.7 °C 1008.7 hPa SSW 4.8 km/h 11.3 km/h 79% 0 mm
01:00 15.3 °C 11.7 °C 1008.7 hPa SSW 4.8 km/h 9.7 km/h 79% 0 mm
01:05 15.5 °C 11.9 °C 1008.7 hPa SSW 4.8 km/h 9.7 km/h 79% 0 mm
01:10 15.7 °C 11.8 °C 1008.7 hPa SSW 3.2 km/h 9.7 km/h 78% 0 mm
01:15 15.7 °C 11.8 °C 1008.7 hPa SSW 4.8 km/h 9.7 km/h 78% 0 mm
01:20 15.7 °C 11.9 °C 1008.7 hPa SSW 6.4 km/h 11.3 km/h 78% 0 mm
01:25 15.8 °C 11.8 °C 1008.7 hPa SW 6.4 km/h 11.3 km/h 77% 0 mm
01:30 15.8 °C 11.8 °C 1008.7 hPa SW 4.8 km/h 11.3 km/h 77% 0 mm
01:35 15.8 °C 11.8 °C 1008.7 hPa SSW 6.4 km/h 11.3 km/h 77% 0 mm
01:40 15.8 °C 11.6 °C 1008.7 hPa SSW 3.2 km/h 9.7 km/h 76% 0 mm
01:45 15.7 °C 11.5 °C 1008.7 hPa SW 1.6 km/h 9.7 km/h 76% 0 mm
01:50 15.6 °C 11.3 °C 1008.7 hPa SW 3.2 km/h 9.7 km/h 76% 0 mm
01:55 15.4 °C 11.4 °C 1008.7 hPa SSW 1.6 km/h 8 km/h 77% 0 mm
02:05 15.2 °C 11.2 °C 1008.4 hPa SSW 6.4 km/h 9.7 km/h 77% 0 mm
02:10 15.2 °C 11 °C 1008.7 hPa SW 3.2 km/h 11.3 km/h 76% 0 mm
02:15 15.3 °C 11.1 °C 1008.7 hPa SSW 4.8 km/h 11.3 km/h 76% 0 mm
02:20 15.4 °C 11.2 °C 1008.7 hPa SW 3.2 km/h 11.3 km/h 76% 0 mm
02:25 15.5 °C 11.1 °C 1008.7 hPa SSW 6.4 km/h 11.3 km/h 75% 0 mm
02:30 15.6 °C 11.2 °C 1008.7 hPa SSW 4.8 km/h 11.3 km/h 75% 0 mm
02:35 15.7 °C 11.1 °C 1008.7 hPa SSW 4.8 km/h 11.3 km/h 74% 0 mm
02:40 15.7 °C 11.1 °C 1008.7 hPa SW 6.4 km/h 11.3 km/h 74% 0 mm
02:45 15.8 °C 11.2 °C 1008.7 hPa SW 4.8 km/h 11.3 km/h 74% 0 mm
02:50 15.7 °C 11.1 °C 1008.7 hPa SW 4.8 km/h 9.7 km/h 74% 0 mm
02:55 15.6 °C 10.9 °C 1008.7 hPa SSW 4.8 km/h 9.7 km/h 74% 0 mm
03:00 15.4 °C 10.8 °C 1008.7 hPa SW 4.8 km/h 11.3 km/h 74% 0 mm
03:05 15.4 °C 11 °C 1008.7 hPa SW 4.8 km/h 11.3 km/h 75% 0 mm
03:10 15.2 °C 10.8 °C 1008.7 hPa SW 6.4 km/h 11.3 km/h 75% 0 mm
03:15 15.1 °C 10.7 °C 1008.7 hPa SW 4.8 km/h 11.3 km/h 75% 0 mm
03:20 15 °C 10.6 °C 1008.7 hPa SW 6.4 km/h 12.9 km/h 75% 0 mm
03:25 15 °C 10.8 °C 1008.7 hPa SW 6.4 km/h 12.9 km/h 76% 0 mm
03:30 15 °C 10.8 °C 1009 hPa SW 6.4 km/h 11.3 km/h 76% 0 mm
03:35 15 °C 10.8 °C 1009 hPa SW 6.4 km/h 11.3 km/h 76% 0 mm
03:40 15 °C 10.8 °C 1008.7 hPa SW 6.4 km/h 11.3 km/h 76% 0 mm
03:45 15.1 °C 10.8 °C 1009 hPa SW 8 km/h 12.9 km/h 76% 0 mm
03:50 15.2 °C 10.8 °C 1009 hPa SW 6.4 km/h 12.9 km/h 75% 0 mm
03:55 15.4 °C 11 °C 1009 hPa SW 4.8 km/h 11.3 km/h 75% 0 mm
04:00 15.6 °C 11.2 °C 1009 hPa SW 6.4 km/h 11.3 km/h 75% 0 mm
04:05 15.8 °C 11.2 °C 1009 hPa SSW 6.4 km/h 14.5 km/h 74% 0 mm
04:10 15.9 °C 11.1 °C 1009 hPa SW 4.8 km/h 14.5 km/h 73% 0 mm
04:15 16.1 °C 11.2 °C 1009 hPa SW 6.4 km/h 11.3 km/h 73% 0 mm
04:20 16.1 °C 11.3 °C 1009 hPa SW 4.8 km/h 11.3 km/h 73% 0 mm
04:30 16.1 °C 11.2 °C 1009 hPa SW 4.8 km/h 11.3 km/h 73% 0 mm
04:35 16 °C 11.2 °C 1009 hPa SSW 3.2 km/h 11.3 km/h 73% 0 mm
04:40 15.9 °C 11.3 °C 1009 hPa SW 4.8 km/h 11.3 km/h 74% 0 mm
04:45 15.8 °C 11.2 °C 1009 hPa SW 6.4 km/h 11.3 km/h 74% 0 mm
04:50 15.6 °C 11 °C 1009 hPa SSW 4.8 km/h 11.3 km/h 74% 0 mm
04:55 15.5 °C 11.3 °C 1009 hPa SW 6.4 km/h 11.3 km/h 76% 0 mm
05:00 15.5 °C 11.1 °C 1009 hPa SSW 4.8 km/h 12.9 km/h 75% 0 mm
05:05 15.6 °C 11.2 °C 1009 hPa SSW 9.7 km/h 19.3 km/h 75% 0 mm
05:10 15.7 °C 11.3 °C 1009 hPa SW 4.8 km/h 19.3 km/h 75% 0 mm
05:15 15.5 °C 11.1 °C 1009 hPa SW 4.8 km/h 12.9 km/h 75% 0 mm
05:20 15.3 °C 10.9 °C 1009 hPa SW 3.2 km/h 11.3 km/h 75% 0 mm
05:25 15.3 °C 11.1 °C 1009 hPa SW 4.8 km/h 11.3 km/h 76% 0 mm
05:30 15.2 °C 10.9 °C 1009 hPa SW 1.6 km/h 11.3 km/h 76% 0 mm
05:35 15.1 °C 10.9 °C 1009 hPa Calm   11.3 km/h 76% 0 mm
05:40 15 °C 11 °C 1009 hPa SSW 4.8 km/h 11.3 km/h 77% 0 mm
05:45 15 °C 11 °C 1009 hPa SW 6.4 km/h 12.9 km/h 77% 0 mm
05:50 15.1 °C 11.1 °C 1009 hPa SSW 3.2 km/h 12.9 km/h 77% 0 mm
05:55 15 °C 11 °C 1009 hPa SSW 4.8 km/h 12.9 km/h 77% 0 mm
06:00 15.1 °C 11.1 °C 1009 hPa SW 4.8 km/h 12.9 km/h 77% 0 mm
06:05 15.2 °C 11.2 °C 1009 hPa SW 3.2 km/h 11.3 km/h 77% 0 mm
06:10 15.4 °C 11.2 °C 1009.4 hPa SW 3.2 km/h 11.3 km/h 76% 0 mm
06:15 15.6 °C 11.3 °C 1009.4 hPa SW 8 km/h 11.3 km/h 76% 0 mm
06:20 15.8 °C 11.6 °C 1009.4 hPa SSW 4.8 km/h 12.9 km/h 76% 0 mm
06:25 15.9 °C 11.5 °C 1009.4 hPa SW 4.8 km/h 12.9 km/h 75% 0 mm
06:30 16.1 °C 11.6 °C 1009.4 hPa SSW 4.8 km/h 12.9 km/h 75% 0 mm
06:35 16.1 °C 11.7 °C 1009.4 hPa SSW 1.6 km/h 11.3 km/h 75% 0 mm
06:40 16.2 °C 11.6 °C 1009.4 hPa SSW 8 km/h 12.9 km/h 74% 0 mm
06:45 16.3 °C 11.8 °C 1009.4 hPa SSW 3.2 km/h 12.9 km/h 75% 0 mm
06:50 16.3 °C 11.9 °C 1009.4 hPa SSW 4.8 km/h 12.9 km/h 75% 0 mm
06:55 16.4 °C 12 °C 1009.4 hPa SSW 4.8 km/h 11.3 km/h 75% 0 mm
07:00 16.6 °C 12.1 °C 1009.4 hPa SSW 6.4 km/h 14.5 km/h 75% 0 mm
07:05 16.7 °C 12.3 °C 1009.4 hPa SSW 6.4 km/h 14.5 km/h 75% 0 mm
07:10 16.9 °C 12.4 °C 1009.4 hPa SW 3.2 km/h 12.9 km/h 75% 0 mm
07:15 17.1 °C 12.6 °C 1009.4 hPa SSW 6.4 km/h 16.1 km/h 75% 0 mm
07:20 17.2 °C 12.8 °C 1009.7 hPa SSW 3.2 km/h 16.1 km/h 75% 0 mm
07:25 17.3 °C 12.9 °C 1009.4 hPa SW 6.4 km/h 14.5 km/h 75% 0 mm
07:30 17.4 °C 12.7 °C 1009.4 hPa SSW 3.2 km/h 12.9 km/h 74% 0 mm
07:35 17.5 °C 12.8 °C 1009.7 hPa SW 4.8 km/h 14.5 km/h 74% 0 mm
07:45 17.8 °C 13.3 °C 1009.7 hPa SSW 1.6 km/h 17.7 km/h 75% 0 mm
07:50 18.1 °C 13.3 °C 1009.7 hPa SSW 6.4 km/h 19.3 km/h 74% 0 mm
07:55 18.3 °C 13.6 °C 1009.7 hPa SW 3.2 km/h 22.5 km/h 74% 0 mm
08:00 18.6 °C 13.4 °C 1009.7 hPa SSW 6.4 km/h 22.5 km/h 72% 0 mm
08:05 18.9 °C 13.9 °C 1009.7 hPa SW 3.2 km/h 17.7 km/h 73% 0 mm
08:10 19.1 °C 13.7 °C 1009.7 hPa SW 8 km/h 17.7 km/h 71% 0 mm
08:15 19.4 °C 14 °C 1009.7 hPa SSW 1.6 km/h 16.1 km/h 71% 0 mm
08:20 19.6 °C 14.4 °C 1009.7 hPa SW 4.8 km/h 16.1 km/h 72% 0 mm
08:25 19.6 °C 13.9 °C 1009.7 hPa SW 9.7 km/h 17.7 km/h 70% 0 mm
08:30 19.8 °C 14.2 °C 1009.7 hPa SW 9.7 km/h 17.7 km/h 70% 0 mm
08:35 19.9 °C 14.6 °C 1009.7 hPa SSW 6.4 km/h 16.1 km/h 71% 0 mm
08:40 20.1 °C 14.2 °C 1009.7 hPa SW 8 km/h 16.1 km/h 69% 0 mm
08:45 20.2 °C 14.5 °C 1009.7 hPa SW 4.8 km/h 16.1 km/h 70% 0 mm
08:50 20.4 °C 14.6 °C 1009.7 hPa SW 6.4 km/h 17.7 km/h 69% 0 mm
08:55 20.7 °C 15 °C 1009.7 hPa SSW 1.6 km/h 17.7 km/h 70% 0 mm
09:00 20.8 °C 14.4 °C 1009.7 hPa SW 6.4 km/h 16.1 km/h 67% 0 mm
09:05 20.9 °C 14.3 °C 1009.7 hPa SSW 8 km/h 16.1 km/h 66% 0 mm
09:10 21.2 °C 15.1 °C 1009.7 hPa SW 3.2 km/h 14.5 km/h 68% 0 mm
09:15 21.4 °C 15 °C 1009.7 hPa SSW 1.6 km/h 16.1 km/h 67% 0 mm
09:20 21.4 °C 15 °C 1009.7 hPa SW 8 km/h 16.1 km/h 67% 0 mm
09:25 21.5 °C 14.9 °C 1009.7 hPa SW 6.4 km/h 17.7 km/h 66% 0 mm
09:30 21.8 °C 15.4 °C 1009.7 hPa SW 1.6 km/h 17.7 km/h 67% 0 mm
09:35 22.1 °C 15.7 °C 1009.7 hPa SSW 1.6 km/h 12.9 km/h 67% 0 mm
09:40 22.4 °C 15.6 °C 1009.7 hPa SSW 4.8 km/h 12.9 km/h 65% 0 mm
09:45 22.7 °C 16 °C 1009.7 hPa WSW 3.2 km/h 14.5 km/h 66% 0 mm
09:50 22.9 °C 15.9 °C 1009.7 hPa SW 3.2 km/h 14.5 km/h 65% 0 mm
09:55 23.2 °C 16.5 °C 1009.7 hPa Calm   11.3 km/h 66% 0 mm
10:00 23.5 °C 16.1 °C 1009.4 hPa SSW 3.2 km/h 11.3 km/h 63% 0 mm
10:05 23.6 °C 16.2 °C 1009.7 hPa SW 6.4 km/h 14.5 km/h 63% 0 mm
10:10 23.7 °C 16.4 °C 1009.4 hPa SW 4.8 km/h 14.5 km/h 64% 0 mm
10:15 23.8 °C 16.6 °C 1009.4 hPa SSW 3.2 km/h 17.7 km/h 64% 0 mm
10:20 23.8 °C 15.9 °C 1009.4 hPa SW 4.8 km/h 17.7 km/h 61% 0 mm
10:25 24.1 °C 17.8 °C 1009.4 hPa Calm   14.5 km/h 68% 0 mm
10:30 24.2 °C 15.7 °C 1009.7 hPa SW 6.4 km/h 12.9 km/h 59% 0 mm
10:35 24.3 °C 16.6 °C 1009.7 hPa SW 3.2 km/h 12.9 km/h 62% 0 mm
10:40 24.5 °C 17.7 °C 1009.7 hPa SW 1.6 km/h 11.3 km/h 66% 0 mm
10:45 24.5 °C 16.5 °C 1009.7 hPa SSW 6.4 km/h 17.7 km/h 61% 0 mm
10:50 24.4 °C 16.9 °C 1009.7 hPa SW 8 km/h 17.7 km/h 63% 0 mm
10:55 24.6 °C 16.6 °C 1009.7 hPa SSW 4.8 km/h 12.9 km/h 61% 0 mm
11:00 24.7 °C 16.2 °C 1009.4 hPa SSW 4.8 km/h 11.3 km/h 59% 0 mm
11:05 24.9 °C 16.9 °C 1009.4 hPa SSW 4.8 km/h 11.3 km/h 61% 0 mm
11:10 25.1 °C 17.8 °C 1009.4 hPa South 1.6 km/h 11.3 km/h 64% 0 mm
11:15 25.3 °C 17.8 °C 1009.4 hPa SW 3.2 km/h 12.9 km/h 63% 0 mm
11:20 25.5 °C 16.7 °C 1009.4 hPa Calm   12.9 km/h 58% 0 mm
11:25 25.8 °C 18 °C 1009.4 hPa Calm   12.9 km/h 62% 0 mm
11:30 25.8 °C 16.4 °C 1009.4 hPa SSW 3.2 km/h 12.9 km/h 56% 0 mm
11:35 25.9 °C 16.2 °C 1009.4 hPa SW 6.4 km/h 12.9 km/h 55% 0 mm
11:40 25.9 °C 16.5 °C 1009.4 hPa WSW 3.2 km/h 11.3 km/h 56% 0 mm
11:45 26.1 °C 17.7 °C 1009.4 hPa Calm   11.3 km/h 60% 0 mm
11:50 26.1 °C 16.3 °C 1009.4 hPa SSW 4.8 km/h 11.3 km/h 55% 0 mm
11:55 26.1 °C 16.1 °C 1009.4 hPa SW 8 km/h 12.9 km/h 54% 0 mm
12:00 26.2 °C 17.3 °C 1009 hPa SSW 1.6 km/h 12.9 km/h 58% 0 mm
12:05 26.5 °C 17.6 °C 1009 hPa SW 1.6 km/h 11.3 km/h 58% 0 mm
12:10 26.5 °C 17 °C 1009.4 hPa SW 1.6 km/h 11.3 km/h 56% 0 mm
12:15 26.5 °C 18.1 °C 1009 hPa Calm   11.3 km/h 60% 0 mm
12:20 26.7 °C 17.8 °C 1009 hPa SSW 1.6 km/h 11.3 km/h 58% 0 mm
12:25 26.7 °C 16.6 °C 1009 hPa SW 6.4 km/h 12.9 km/h 54% 0 mm
12:30 26.7 °C 17.8 °C 1009 hPa South 4.8 km/h 14.5 km/h 58% 0 mm
12:35 26.7 °C 16.3 °C 1009 hPa WSW 6.4 km/h 14.5 km/h 53% 0 mm
12:40 26.9 °C 17.4 °C 1009 hPa Calm   14.5 km/h 56% 0 mm
12:45 26.9 °C 16.6 °C 1009 hPa SW 3.2 km/h 14.5 km/h 53% 0 mm
12:50 27 °C 16.6 °C 1009 hPa SW 1.6 km/h 14.5 km/h 53% 0 mm
12:55 27.2 °C 18.2 °C 1009 hPa Calm   14.5 km/h 58% 0 mm
13:00 27.2 °C 17.9 °C 1009 hPa SW 1.6 km/h 14.5 km/h 57% 0 mm
13:05 27.3 °C 16.6 °C 1008.7 hPa SSW 4.8 km/h 14.5 km/h 52% 0 mm
13:10 27.3 °C 17.4 °C 1008.7 hPa SW 1.6 km/h 11.3 km/h 55% 0 mm
13:15 27.4 °C 17 °C 1008.7 hPa SW 6.4 km/h 14.5 km/h 53% 0 mm
13:20 27.4 °C 17.6 °C 1008.7 hPa Calm   14.5 km/h 55% 0 mm
13:25 27.6 °C 17.2 °C 1008.7 hPa SSW 3.2 km/h 9.7 km/h 53% 0 mm
13:30 27.8 °C 17.3 °C 1008.7 hPa West 1.6 km/h 11.3 km/h 53% 0 mm
13:35 27.8 °C 17.1 °C 1008.7 hPa West 6.4 km/h 14.5 km/h 52% 0 mm
13:40 27.8 °C 15.1 °C 1008.4 hPa SW 3.2 km/h 14.5 km/h 46% 0 mm
13:45 27.9 °C 15.9 °C 1008.4 hPa West 4.8 km/h 9.7 km/h 48% 0 mm
13:50 28 °C 13.9 °C 1008.7 hPa SW 1.6 km/h 9.7 km/h 42% 0 mm
13:55 28.2 °C 16.1 °C 1008.4 hPa WSW 1.6 km/h 11.3 km/h 48% 0 mm
14:00 28.5 °C 13.2 °C 1008.4 hPa WNW 4.8 km/h 11.3 km/h 39% 0 mm
14:05 28.6 °C 13.7 °C 1008.4 hPa West 1.6 km/h 11.3 km/h 40% 0 mm
14:10 28.7 °C 14.2 °C 1008.4 hPa West 1.6 km/h 9.7 km/h 41% 0 mm
14:15 28.9 °C 13.9 °C 1008.4 hPa NW 3.2 km/h 8 km/h 40% 0 mm
14:20 29.1 °C 14.5 °C 1008.4 hPa WSW 1.6 km/h 9.7 km/h 41% 0 mm
14:25 29 °C 14.1 °C 1008.4 hPa WSW 1.6 km/h 11.3 km/h 40% 0 mm
14:30 29.1 °C 13.7 °C 1008.4 hPa West 1.6 km/h 11.3 km/h 39% 0 mm
14:35 28.9 °C 13.6 °C 1008.4 hPa Calm   12.9 km/h 39% 0 mm
14:40 28.9 °C 13.2 °C 1008.4 hPa WNW 4.8 km/h 12.9 km/h 38% 0 mm
14:45 28.8 °C 13.9 °C 1008.4 hPa NW 8 km/h 12.9 km/h 40% 0 mm
14:50 28.8 °C 14.6 °C 1008.4 hPa Calm   16.1 km/h 42% 0 mm
14:55 28.8 °C 13.5 °C 1008.4 hPa SW 1.6 km/h 16.1 km/h 39% 0 mm
15:00 28.9 °C 15.1 °C 1008.4 hPa Calm   8 km/h 43% 0 mm
15:05 29.1 °C 14.9 °C 1008.4 hPa WSW 1.6 km/h 8 km/h 42% 0 mm
15:10 29.1 °C 14.1 °C 1008.4 hPa Calm   11.3 km/h 40% 0 mm
15:15 29.2 °C 15.4 °C 1008.4 hPa Calm   11.3 km/h 43% 0 mm
15:20 29.4 °C 13.6 °C 1008 hPa Calm   9.7 km/h 38% 0 mm
15:25 29.6 °C 15.7 °C 1008 hPa WSW 1.6 km/h 4.8 km/h 43% 0 mm
15:30 29.6 °C 14.6 °C 1008 hPa WSW 3.2 km/h 11.3 km/h 40% 0 mm
15:35 29.2 °C 12.6 °C 1008 hPa West 1.6 km/h 11.3 km/h 36% 0 mm
15:40 29.1 °C 13.3 °C 1008 hPa West 3.2 km/h 11.3 km/h 38% 0 mm
15:45 29.1 °C 12.9 °C 1008 hPa Calm   11.3 km/h 37% 0 mm
15:50 29.3 °C 14.7 °C 1008 hPa WSW 1.6 km/h 8 km/h 41% 0 mm
15:55 28.9 °C 13.6 °C 1008 hPa SSW 6.4 km/h 11.3 km/h 39% 0 mm
16:00 28.8 °C 13.9 °C 1008 hPa WSW 3.2 km/h 14.5 km/h 40% 0 mm
16:05 28.8 °C 13.5 °C 1007.7 hPa SSW 3.2 km/h 14.5 km/h 39% 0 mm
16:10 28.8 °C 14.3 °C 1007.7 hPa WSW 3.2 km/h 9.7 km/h 41% 0 mm
16:15 28.8 °C 12.7 °C 1007.7 hPa Calm   12.9 km/h 37% 0 mm
16:20 28.7 °C 14.1 °C 1007.7 hPa Calm   12.9 km/h 41% 0 mm
16:25 28.7 °C 15.3 °C 1007.7 hPa West 1.6 km/h 8 km/h 44% 0 mm
16:30 28.7 °C 14.5 °C 1007.7 hPa SW 4.8 km/h 11.3 km/h 42% 0 mm
16:35 28.5 °C 15.4 °C 1007.7 hPa Calm   11.3 km/h 45% 0 mm
16:45 28.6 °C 14.1 °C 1007.7 hPa SW 4.8 km/h 12.9 km/h 41% 0 mm
16:50 28.4 °C 15.1 °C 1007.7 hPa West 1.6 km/h 12.9 km/h 44% 0 mm
16:55 28.4 °C 14.7 °C 1007.7 hPa SW 4.8 km/h 12.9 km/h 43% 0 mm
17:00 28.6 °C 15.5 °C 1007.7 hPa Calm   12.9 km/h 45% 0 mm
17:05 28.5 °C 14.7 °C 1007.7 hPa Calm   8 km/h 43% 0 mm
17:10 28.3 °C 14.2 °C 1007.7 hPa WSW 1.6 km/h 9.7 km/h 42% 0 mm
17:15 28.3 °C 14.9 °C 1007.7 hPa Calm   9.7 km/h 44% 0 mm
17:20 28.3 °C 16.2 °C 1007.7 hPa WSW 1.6 km/h 8 km/h 48% 0 mm
17:25 28.2 °C 14.1 °C 1007.7 hPa Calm   8 km/h 42% 0 mm
17:30 28.2 °C 14.1 °C 1007.7 hPa Calm   8 km/h 42% 0 mm
17:35 28.3 °C 15.6 °C 1007.7 hPa Calm   8 km/h 46% 0 mm
17:40 28.3 °C 15.3 °C 1007.3 hPa SSW 1.6 km/h 6.4 km/h 45% 0 mm
17:45 28.2 °C 15.4 °C 1007.3 hPa Calm   6.4 km/h 46% 0 mm
17:50 28.1 °C 14.7 °C 1007.3 hPa Calm   1.6 km/h 44% 0 mm
17:55 28.1 °C 13.6 °C 1007.3 hPa SW 1.6 km/h 8 km/h 41% 0 mm
18:00 28.1 °C 15 °C 1007.3 hPa Calm   8 km/h 45% 0 mm
18:05 28.1 °C 17 °C 1007.3 hPa WSW 1.6 km/h 6.4 km/h 51% 0 mm
18:10 27.9 °C 14.2 °C 1007.7 hPa Calm   17.7 km/h 43% 0 mm
18:15 27.8 °C 15.4 °C 1007.7 hPa SW 3.2 km/h 17.7 km/h 47% 0 mm
18:20 27.4 °C 15.2 °C 1007.7 hPa SW 3.2 km/h 12.9 km/h 47% 0 mm
18:25 27.2 °C 14.6 °C 1007.7 hPa SW 3.2 km/h 12.9 km/h 46% 0 mm
18:30 27.1 °C 14.8 °C 1007.7 hPa SW 1.6 km/h 12.9 km/h 47% 0 mm
18:35 26.9 °C 14.3 °C 1007.7 hPa SW 3.2 km/h 14.5 km/h 46% 0 mm
18:40 26.7 °C 14.8 °C 1007.7 hPa SW 3.2 km/h 14.5 km/h 48% 0 mm
18:45 26.4 °C 13.9 °C 1007.7 hPa SW 4.8 km/h 12.9 km/h 46% 0 mm
18:50 26.2 °C 14 °C 1007.7 hPa SW 3.2 km/h 14.5 km/h 47% 0 mm
18:55 26 °C 14.5 °C 1007.7 hPa SSW 3.2 km/h 14.5 km/h 49% 0 mm
19:00 25.9 °C 14.4 °C 1007.7 hPa Calm   9.7 km/h 49% 0 mm
19:05 25.7 °C 13.8 °C 1007.7 hPa Calm   11.3 km/h 48% 0 mm
19:10 25.6 °C 15 °C 1007.7 hPa Calm   11.3 km/h 52% 0 mm
19:14 25.4 °C 15.1 °C 1007.7 hPa Calm   9.7 km/h 53% 0 mm
19:20 25.2 °C 14.4 °C 1007.7 hPa SW 3.2 km/h 9.7 km/h 51% 0 mm
19:25 25 °C 14.5 °C 1007.7 hPa Calm   9.7 km/h 52% 0 mm
19:30 24.9 °C 14.4 °C 1007.7 hPa WSW 1.6 km/h 9.7 km/h 52% 0 mm
19:35 24.6 °C 14.7 °C 1008 hPa WSW 1.6 km/h 6.4 km/h 54% 0 mm
19:40 24.4 °C 14.8 °C 1008 hPa Calm   4.8 km/h 55% 0 mm
19:45 24.2 °C 15.4 °C 1008 hPa Calm   1.6 km/h 58% 0 mm
19:50 23.8 °C 14.6 °C 1008 hPa Calm   1.6 km/h 56% 0 mm
19:55 23.5 °C 14.5 °C 1008 hPa Calm   1.6 km/h 57% 0 mm
20:00 23.1 °C 15.4 °C 1008 hPa Calm   1.6 km/h 62% 0 mm
20:05 22.7 °C 15.3 °C 1008 hPa Calm     63% 0 mm
20:10 22.2 °C 14.8 °C 1007.7 hPa Calm     63% 0 mm
20:15 21.8 °C 14.7 °C 1007.7 hPa Calm     64% 0 mm
20:20 21.4 °C 14.3 °C 1008 hPa Calm     64% 0 mm
20:25 21.1 °C 14.4 °C 1007.7 hPa Calm     66% 0 mm
20:30 20.6 °C 14.2 °C 1008 hPa WSW 1.6 km/h 4.8 km/h 67% 0 mm
20:35 20.2 °C 14.1 °C 1008 hPa Calm   4.8 km/h 68% 0 mm
20:40 20 °C 13.9 °C 1008 hPa Calm   1.6 km/h 68% 0 mm
20:45 19.8 °C 13.8 °C 1007.7 hPa Calm   1.6 km/h 68% 0 mm
20:50 19.7 °C 13.6 °C 1008 hPa Calm   4.8 km/h 68% 0 mm
20:55 19.7 °C 13.4 °C 1008 hPa Calm   4.8 km/h 67% 0 mm
21:00 19.7 °C 13.2 °C 1008 hPa Calm   1.6 km/h 66% 0 mm
21:05 19.6 °C 13.5 °C 1008 hPa Calm   4.8 km/h 68% 0 mm
21:10 19.4 °C 13.1 °C 1008 hPa Calm   4.8 km/h 67% 0 mm
21:15 19.2 °C 12.9 °C 1008 hPa WSW 1.6 km/h 4.8 km/h 67% 0 mm
21:20 19.1 °C 12.8 °C 1008 hPa WSW 1.6 km/h 4.8 km/h 67% 0 mm
21:25 19 °C 13.2 °C 1008.4 hPa Calm   4.8 km/h 69% 0 mm
21:30 18.9 °C 12.7 °C 1008.4 hPa Calm   4.8 km/h 67% 0 mm
21:35 18.9 °C 12.7 °C 1008.4 hPa WSW 1.6 km/h 6.4 km/h 67% 0 mm
21:40 19.1 °C 12.8 °C 1008.4 hPa Calm   9.7 km/h 67% 0 mm
21:45 19.2 °C 13.1 °C 1008.4 hPa Calm   9.7 km/h 68% 0 mm
21:50 19.1 °C 13.3 °C 1008.4 hPa Calm   3.2 km/h 69% 0 mm
21:55 18.9 °C 12.9 °C 1008.4 hPa SSW 1.6 km/h 4.8 km/h 68% 0 mm
22:00 18.8 °C 13 °C 1008.7 hPa Calm   4.8 km/h 69% 0 mm
22:05 18.7 °C 12.9 °C 1008.7 hPa Calm   4.8 km/h 69% 0 mm
22:10 18.7 °C 12.9 °C 1008.7 hPa Calm   4.8 km/h 69% 0 mm
22:15 18.7 °C 12.7 °C 1008.7 hPa Calm   1.6 km/h 68% 0 mm
22:20 18.7 °C 12.9 °C 1008.7 hPa Calm   1.6 km/h 69% 0 mm
22:25 18.6 °C 13.1 °C 1008.7 hPa SSW 1.6 km/h 8 km/h 70% 0 mm
22:30 18.5 °C 13.2 °C 1008.7 hPa SSW 1.6 km/h 8 km/h 71% 0 mm
22:35 18.3 °C 12.8 °C 1008.7 hPa Calm   4.8 km/h 70% 0 mm
22:40 18.3 °C 12.7 °C 1008.7 hPa Calm   1.6 km/h 70% 0 mm
22:45 18.3 °C 13.3 °C 1008.7 hPa Calm   1.6 km/h 73% 0 mm
22:50 18.2 °C 13.3 °C 1008.7 hPa Calm   1.6 km/h 73% 0 mm
22:55 18.1 °C 12.9 °C 1008.7 hPa Calm     72% 0 mm
23:00 17.9 °C 13.1 °C 1008.7 hPa Calm     73% 0 mm
23:05 17.8 °C 12.9 °C 1008.7 hPa Calm     73% 0 mm
23:10 17.6 °C 12.7 °C 1008.7 hPa Calm     73% 0 mm
23:15 17.4 °C 12.8 °C 1008.7 hPa Calm     74% 0 mm
23:20 17.2 °C 12.7 °C 1008.7 hPa Calm     75% 0 mm
23:25 16.9 °C 12.4 °C 1008.7 hPa Calm     75% 0 mm
23:30 16.8 °C 12.5 °C 1008.7 hPa Calm   4.8 km/h 76% 0 mm
23:35 16.9 °C 12.6 °C 1008.7 hPa Calm   4.8 km/h 76% 0 mm
23:40 17 °C 12.7 °C 1008.7 hPa Calm     76% 0 mm
23:45 17.2 °C 12.9 °C 1008.7 hPa Calm     76% 0 mm
23:50 17.4 °C 12.9 °C 1008.7 hPa Calm   6.4 km/h 75% 0 mm
23:55 17.8 °C 13.2 °C 1008.7 hPa SSW 1.6 km/h 9.7 km/h 74% 0 mm
Westford Weather
Compliments of Weather Underground

 
 
Current Radar Loop:

Copyright © WestfordWeather.net 2007-2014. All rights reserved.